Weather History for KOLE - March, 2013

Change the Weather History Date:

Sunday, March 3, 2013

  Actual Average (KBFD) Record (KBFD)
Temperature  
Mean Temperature 19 °F 27 °F  
Max Temperature 21 °F 37 °F 66 °F (1976)
Min Temperature 17 °F 17 °F -9 °F (2003)
Degree Days  
Heating Degree Days 46 32  
Month to date heating degree days 98  
Since 1 July heating degree days 5668  
Cooling Degree Days 0 0  
Month to date cooling degree days 0  
Year to date cooling degree days 0  
Moisture  
Dew Point 15 °F    
Average Humidity 85    
Maximum Humidity 93    
Minimum Humidity 74    
Precipitation  
Precipitation 0.00 in 0.10 in 0.81 in (1991)
Month to date precipitation 0.29  
Year to date precipitation 5.93  
Sea Level Pressure  
Sea Level Pressure 29.76 in    
Wind  
Wind Speed 0 mph (WNW)    
Max Wind Speed 10 mph    
Max Gust Speed 20 mph    
Visibility 3 miles    
Events Snow    
T = Trace of Precipitation, MM = Missing Value Source: NWS Daily Summary

Daily Weather History Graph

Daily Weather History Graph

Search for Another Location

Airport or City:

Trip Planner

Search our weather history database for the weather conditions in past years. The results will help you decide how hot, cold, wet, or windy it might be!

Date:

Astronomy

Mar. 03, 2013 Rise Set
Actual Time 6:45 AM EST 6:06 PM EST
Civil Twilight 6:17 AM EST 6:34 PM EST
Nautical Twilight 5:44 AM EST 7:06 PM EST
Astronomical Twilight 5:12 AM EST 7:39 PM EST
Moon No Moon Rise 9:51 AM EST (3/3)
Length of Visible Light 12h 17m
Length of Day
11h 21m
Waning Gibbous, 64% of the Moon is Illuminated
Mar 3
Waning Gibbous
Mar 4
Last Quarter
Mar 11
New
Mar 19
First Quarter
Mar 27
Full

Hourly Weather History & Observations

Time (EST) Temp. Windchill Dew Point Humidity Pressure Visibility Wind Dir Wind Speed Gust Speed Precip Events Conditions
12:15 AM 17.6 °F - 15.8 °F 93% 29.77 in 4.0 mi Calm Calm - N/A Snow Light Snow
12:35 AM 17.6 °F - 15.8 °F 93% 29.77 in 3.0 mi Calm Calm - N/A Snow Light Snow
12:55 AM 17.6 °F - 14.0 °F 86% 29.77 in 3.0 mi Calm Calm - N/A Snow Light Snow
1:15 AM 17.6 °F - 14.0 °F 86% 29.77 in 4.0 mi Calm Calm - N/A Snow Light Snow
1:35 AM 17.6 °F - 14.0 °F 86% 29.76 in 7.0 mi Calm Calm - N/A Snow Light Snow
1:55 AM 17.6 °F - 15.8 °F 93% 29.76 in 1.5 mi Calm Calm - N/A Snow Light Snow
2:15 AM 17.6 °F - 15.8 °F 93% 29.75 in 1.2 mi Calm Calm - N/A Snow Light Snow
2:35 AM 17.6 °F - 15.8 °F 93% 29.75 in 2.5 mi Calm Calm - N/A Snow Light Snow
2:55 AM 17.6 °F - 15.8 °F 93% 29.74 in 3.0 mi Calm Calm - N/A Snow Light Snow
3:15 AM 17.6 °F - 15.8 °F 93% 29.74 in 5.0 mi Calm Calm - N/A Snow Light Snow
3:35 AM 17.6 °F - 15.8 °F 93% 29.74 in 3.0 mi Calm Calm - N/A Snow Light Snow
3:55 AM 17.6 °F - 15.8 °F 93% 29.74 in 2.5 mi Calm Calm - N/A Snow Light Snow
4:15 AM 17.6 °F - 15.8 °F 93% 29.74 in 2.0 mi Calm Calm - N/A Snow Light Snow
4:35 AM 17.6 °F - 15.8 °F 93% 29.75 in 2.0 mi Calm Calm - N/A Snow Light Snow
4:55 AM 17.6 °F - 14.0 °F 86% 29.75 in 2.5 mi Calm Calm - N/A Snow Light Snow
5:15 AM 17.6 °F - 15.8 °F 93% 29.75 in 1.8 mi Calm Calm - N/A Snow Light Snow
5:35 AM 17.6 °F - 14.0 °F 86% 29.75 in 2.5 mi Calm Calm - N/A Snow Light Snow
5:55 AM 17.6 °F - 14.0 °F 86% 29.74 in 3.0 mi Calm Calm - N/A Snow Light Snow
6:15 AM 17.6 °F - 14.0 °F 86% 29.74 in 2.5 mi Calm Calm - N/A Snow Light Snow
6:35 AM 17.6 °F - 14.0 °F 86% 29.74 in 3.0 mi Calm Calm - N/A Snow Light Snow
6:55 AM 17.6 °F - 14.0 °F 86% 29.75 in 2.5 mi Calm Calm - N/A Snow Light Snow
7:15 AM 17.6 °F - 14.0 °F 86% 29.75 in 5.0 mi Calm Calm - N/A Snow Light Snow
7:35 AM 17.6 °F - 14.0 °F 86% 29.75 in 2.5 mi Calm Calm - N/A Snow Light Snow
7:55 AM 17.6 °F - 14.0 °F 86% 29.76 in 2.5 mi Calm Calm - N/A Snow Light Snow
8:15 AM 17.6 °F - 14.0 °F 86% 29.76 in 0.8 mi Calm Calm - N/A Snow Light Snow
8:35 AM 17.6 °F - 14.0 °F 86% 29.76 in 1.5 mi Calm Calm - N/A Snow Light Snow
8:55 AM 17.6 °F - 14.0 °F 86% 29.76 in 1.8 mi Calm Calm - N/A Snow Light Snow
9:15 AM 17.6 °F - 14.0 °F 86% 29.76 in 1.0 mi Calm Calm - N/A Snow Light Snow
9:35 AM 19.4 °F - 14.0 °F 80% 29.76 in 1.2 mi Calm Calm - N/A Snow Light Snow
9:55 AM 19.4 °F - 15.8 °F 86% 29.75 in 0.5 mi Calm Calm - N/A Snow Light Snow
10:15 AM 19.4 °F - 15.8 °F 86% 29.75 in 1.2 mi Calm Calm - N/A Snow Light Snow
10:35 AM 19.4 °F - 14.0 °F 80% 29.75 in 1.8 mi Calm Calm - N/A Snow Light Snow
10:55 AM 19.4 °F - 14.0 °F 80% 29.76 in 1.8 mi Calm Calm - N/A Snow Light Snow
11:15 AM 21.2 °F - 14.0 °F 74% 29.76 in 2.0 mi Calm Calm - N/A Snow Light Snow
11:35 AM 19.4 °F - 14.0 °F 80% 29.76 in 1.2 mi Calm Calm - N/A Snow Light Snow
11:55 AM 21.2 °F - 15.8 °F 80% 29.75 in 1.5 mi Calm Calm - N/A Snow Light Snow
12:15 PM 21.2 °F - 14.0 °F 74% 29.75 in 1.5 mi Calm Calm - N/A Snow Light Snow
12:35 PM 21.2 °F - 14.0 °F 74% 29.75 in 3.0 mi Calm Calm - N/A Snow Light Snow
12:55 PM 21.2 °F - 14.0 °F 74% 29.74 in 3.0 mi Calm Calm - N/A Snow Light Snow
1:15 PM 21.2 °F - 14.0 °F 74% 29.73 in 5.0 mi Calm Calm - N/A Snow Light Snow
1:35 PM 21.2 °F - 14.0 °F 74% 29.73 in 5.0 mi Calm Calm - N/A Snow Light Snow
1:55 PM 21.2 °F - 15.8 °F 80% 29.73 in 5.0 mi Calm Calm - N/A Snow Light Snow
2:15 PM 21.2 °F - 14.0 °F 74% 29.73 in 4.0 mi Calm Calm - N/A Snow Light Snow
2:35 PM 21.2 °F - 14.0 °F 74% 29.74 in 3.0 mi Calm Calm - N/A Snow Light Snow
2:55 PM 21.2 °F - 15.8 °F 80% 29.74 in 2.0 mi Calm Calm - N/A Snow Light Snow
3:15 PM 21.2 °F - 14.0 °F 74% 29.74 in 3.0 mi Calm Calm - N/A Snow Light Snow
3:35 PM 19.4 °F - 14.0 °F 80% 29.75 in 1.8 mi Calm Calm - N/A Snow Light Snow
3:55 PM 19.4 °F - 14.0 °F 80% 29.75 in 2.5 mi Calm Calm - N/A Snow Light Snow
4:35 PM 19.4 °F - 14.0 °F 80% 29.76 in 3.0 mi Calm Calm - N/A Snow Light Snow
4:55 PM 19.4 °F - 14.0 °F 80% 29.76 in 3.0 mi Calm Calm - N/A Snow Light Snow
5:15 PM 19.4 °F - 14.0 °F 80% 29.76 in 2.5 mi Calm Calm - N/A Snow Light Snow
5:35 PM 19.4 °F - 14.0 °F 80% 29.76 in 2.5 mi Calm Calm - N/A Snow Light Snow
5:55 PM 19.4 °F - 15.8 °F 86% 29.76 in 2.5 mi Calm Calm - N/A Snow Light Snow
6:15 PM 19.4 °F - 15.8 °F 86% 29.77 in 3.0 mi Calm Calm - N/A Snow Light Snow
6:35 PM 19.4 °F - 15.8 °F 86% 29.78 in 4.0 mi Calm Calm - N/A Snow Light Snow
6:55 PM 19.4 °F - 15.8 °F 86% 29.78 in 4.0 mi Calm Calm - N/A Snow Light Snow
7:15 PM 19.4 °F - 15.8 °F 86% 29.78 in 4.0 mi Calm Calm - N/A Snow Light Snow
7:35 PM 19.4 °F - 15.8 °F 86% 29.79 in 3.0 mi Calm Calm - N/A Snow Light Snow
7:55 PM 19.4 °F - 15.8 °F 86% 29.79 in 3.0 mi Calm Calm - N/A Snow Light Snow
8:15 PM 19.4 °F - 15.8 °F 86% 29.79 in 3.0 mi Calm Calm - N/A Snow Light Snow
8:35 PM 19.4 °F - 15.8 °F 86% 29.79 in 3.0 mi Calm Calm - N/A Snow Light Snow
8:55 PM 19.4 °F - 15.8 °F 86% 29.80 in 1.5 mi Calm Calm - N/A Snow Light Snow
9:15 PM 19.4 °F - 15.8 °F 86% 29.80 in 1.5 mi Calm Calm - N/A Snow Light Snow
9:35 PM 17.6 °F - 15.8 °F 93% 29.80 in 1.5 mi Calm Calm - N/A Snow Light Snow
9:55 PM 17.6 °F - 14.0 °F 86% 29.80 in 3.0 mi Calm Calm - N/A Snow Light Snow
10:15 PM 17.6 °F - 14.0 °F 86% 29.80 in 3.0 mi Calm Calm - N/A Snow Light Snow
10:35 PM 17.6 °F - 14.0 °F 86% 29.80 in 3.0 mi Calm Calm - N/A Snow Light Snow
10:55 PM 17.6 °F 6.4 °F 14.0 °F 86% 29.79 in 4.0 mi WNW 9.2 mph 17.3 mph N/A Snow Light Snow
11:15 PM 17.6 °F 5.7 °F 14.0 °F 86% 29.80 in 4.0 mi WNW 10.4 mph 19.6 mph N/A Snow Light Snow
11:35 PM 17.6 °F 8.2 °F 14.0 °F 86% 29.80 in 4.0 mi WNW 6.9 mph 16.1 mph N/A Snow Light Snow
11:55 PM 17.6 °F 6.4 °F 12.2 °F 79% 29.80 in 4.0 mi WNW 9.2 mph 16.1 mph N/A Snow Light Snow